Regional Weather Roundup
Issued by NWS

Home | Current Version | Previous Version | Graphics & Text | Print | Product List | Glossary Off
Versions: 1 2 3 4 5 6 7 8 9 10 11 12 13 14 15 16 17 18 19 20 21 22 23 24 25 26 27 28 29 30 31 32 33 34 35 36 37 38 39 40 41 42 43 44 45 46 47 48 49 50

000
ASUS43 KDMX 240201
RWRIA

WEATHER ROUNDUP FOR IOWA
NATIONAL WEATHER SERVICE DES MOINES IA
800 PM CST THU FEB 23 2017

NOTE: "FAIR" INDICATES FEW OR NO CLOUDS BELOW 12,000 FEET WITH NO
SIGNIFICANT WEATHER AND/OR OBSTRUCTIONS TO VISIBILITY.

* - THESE STATIONS ARE NOT NWS STATIONS...THUS NOT UNDER NWS
QUALITY CONTROL.  THEY ALSO DO NOT REPORT WEATHER SUCH
AS PRECIPITATION OR FOG.

IAZ001>003-012>014-020>022-031>034-043>046-240300-
   NORTHWEST IOWA

CITY           SKY/WX    TMP DP  RH WIND       PRES   REMARKS
CARROLL *      LGT RAIN  34  34 100 NE21G28   29.66R WCI  22
CHEROKEE *     LGT SNOW  31  31 100 NE21G28   29.71F VSB 1   WCI  18
DENISON *      LGT RAIN  34  32  93 NE22G29   29.61F WCI  22
LE MARS *      LGT SNOW  30  30 100 NE22G28   29.75R VSB 3/4 WCI  17
ORANGE CITY *  LGT SNOW  28  28 100 NE17G25   29.77R VSB 1   WCI  16
SHELDON *      SNOW      28  28 100 NE23G35   29.73F VSB 1/4 WCI  14
SIOUX CITY     SNOW      33  30  88 NE22G33   29.70F VSB 1/4 WCI  21
SPENCER        LGT SNOW  30  29  96 NE25G32   29.77R VSB 3/4 WCI  16
STORM LAKE *   MIX PCPN  30  30 100 NE31G41   29.69R VSB 1/2 WCI  15
$$

IAZ055>058-069>071-079>083-090>094-240300-
   SOUTHWEST IOWA

CITY           SKY/WX    TMP DP  RH WIND       PRES   REMARKS
ATLANTIC *     MIX PCPN  39  39 100 NE17G26   29.58F WCI  30
CLARINDA *     CLOUDY    45  41  87 NE15G22   29.52F
COUNCIL BLFS * LGT RAIN  37  37 100 NE20G28   29.57F WCI  27
CRESTON *      CLOUDY    41  41 100 NE23G30   29.54F FOG
HARLAN  *      LGT SNOW  36  36 100 NE23G32   29.64S WCI  24
LAMONI         CLOUDY    45  42  89 NE17      29.52F
RED OAK *      CLOUDY    41  39  93 NE17G24   29.56R
SHENANDOAH *   CLOUDY    43  39  87 NE17      29.54R
$$

IAZ047>049-059>061-072>074-084-240300-
   CENTRAL IOWA

CITY           SKY/WX    TMP DP  RH WIND       PRES   REMARKS
AMES           LGT RAIN  39  38  96 NE17G26   29.61F WCI  30
ANKENY *       MIX PCPN  41  39  93 NE14G21   29.61F
BOONE *        CLOUDY    37  37 100 NE24G33   29.61F WCI  26
CHARITON *     CLOUDY    43  43 100 NE18      29.55F FOG
DES MOINES     DRIZZLE   43  40  89 NE20      29.59F FOG
GRINNELL*      LGT RAIN  40  39  95 NE22G31   29.61F WCI  31
KNOXVILLE *    CLOUDY    43  41  93 NE16G22   29.56F FOG
MARSHALLTOWN   CLOUDY    40  38  93 NE22G29   29.64F WCI  30
NEWTON *       CLOUDY    41  39  93 NE20G29   29.60S FOG
PELLA *        RAIN      42  41  95 E9G17     29.59F
PERRY *        CLOUDY    39  37  92 NE18G29   29.60F WCI  29
$$

IAZ004>006-015-016-023>025-035-036-240300-
   NORTH CENTRAL IOWA

CITY           SKY/WX    TMP DP  RH WIND       PRES   REMARKS
ALGONA *       SNOW      32  32 100 MISG      29.73F VSB 1/2
CLARION *      CLOUDY    34  34 100 NE28G36   29.67F FOG     WCI  20
ESTHERVILLE    LGT SNOW  29  29 100 N25       29.77R VSB 3/4 WCI  14
FORT DODGE *   CLOUDY    34  28  80 NE22G28   29.66F WCI  22
MASON CITY     SNOW      33  31  92 NE21      29.77F VSB 1/2 WCI  21
FOREST CITY *  SNOW      32  32 100 NE17G23   29.75F VSB 1/2 WCI  21
WEBSTER CITY * LGT RAIN  34  34 100 NE24G32   29.61F WCI  21
IOWA FALLS *   RAIN      37  35  92 NE21G30   29.67F WCI  26
$$

IAZ007>011-017>019-026>030-037>042-050>054-066-240300-
   NORTHEAST IOWA

CITY           SKY/WX    TMP DP  RH WIND       PRES   REMARKS
CEDAR RAPIDS   LGT RAIN  42  41  96 E22G29    29.64S
CHARLES CITY * MIX PCPN  36  36 100 NE20G25   29.75R WCI  25
CLINTON *      LGT RAIN  39  37  92 E15       29.69S WCI  31
DECORAH *      CLOUDY    37  34  87 NE12G21   29.73F WCI  30
DUBUQUE        CLOUDY    39  37  92 NE17G25   29.70F WCI  30
MONTICELLO *   HVY RAIN  41  39  93 NE9G16    29.71R
OELWEIN *      LGT RAIN  39  39 100 E13       29.73R WCI  32
WATERLOO       LGT RAIN  39  35  86 NE20G28   29.71S WCI  29
$$

IAZ064-065-067-068-078-240300-
   EAST CENTRAL IOWA

CITY           SKY/WX    TMP DP  RH WIND       PRES   REMARKS
DAVENPORT      LGT RAIN  40  38  93 E18       29.67R WCI  31
IOWA CITY      LGT RAIN  44  40  85 NE13G26   29.65F FOG
MUSCATINE *    CLOUDY    45  43  93 E16       29.64S
QUAD CITIES    CLOUDY    45  39  79 E21G29    29.64F
$$

IAZ062-063-075>077-085>089-095>099-240300-
   SOUTHEAST IOWA

CITY           SKY/WX    TMP DP  RH WIND       PRES   REMARKS
BURLINGTON     CLOUDY    49  47  93 E18       29.57F
FAIRFIELD *    CLOUDY    46  46 100 E20G26    29.55F FOG
KEOKUK *       CLOUDY    52  48  87 E16       29.53F
CENTERVILLE *  CLOUDY    45  45 100 NE12      29.54F FOG
OTTUMWA        CLOUDY    45  45 100 NE15      29.57S FOG
WASHINGTON *   LGT RAIN  46  45  93 E20G26    29.59F
$$

ABBREVIATIONS USED IN REMARKS
   TC - TEMPERATURES IN CELSIUS
  WCI - WIND CHILL INDEX
   HX - HEAT INDEX
  VSB - VISIBILITY
$$





USA.gov is the U.S. government's official web portal to all federal, state and local government web resources and services.